Location: Mary A Oil Field
(38.5606°N, 98.9545°W)
Time: 21:48:18
(UTC+00:00)

Cosmos 44 Rocket - Pass Details

Date: 20 January 2020
Orbit: 660 x 730 km, 65.1° (Epoch: 27 February)

Event Time Altitude Azimuth Distance (km) Brightness Sun altitude
Exits shadow 11:43:03 37° 2° (N) 1,033 4.1 -24.6°
Maximum altitude 11:44:35 54° 56° (NE) 815 3.8 -24.3°
Drops below altitude 10° 11:49:14 10° 134° (SE) 2,101 6.5 -23.4°
Sets 11:51:37 0° 139° (SE) 3,022 7.3 -22.9°
